Location: Central Falls
(41.8900°N, 71.3929°W)
Time: 17:02:58
(UTC+00:00)

Vanguard 1 Rocket - Pass Details

Date: 03 December 2023
Orbit: 654 x 4218 km, 34.3° (Epoch: 25 February)

Event Time Altitude Azimuth Distance (km) Brightness Sun altitude
Rises 06:42:56 0° 194° (SSW) 8,438 12.1 -56.8°
Reaches altitude 10° 06:51:30 10° 181° (S) 7,363 11.8 -55.3°
Maximum altitude 07:07:06 21° 142° (SE) 5,755 11.4 -52.6°
Drops below altitude 10° 07:19:08 10° 101° (E) 5,672 11.8 -50.5°
Sets 07:24:14 0° 87° (E) 6,130 12.3 -49.6°
